Regional Weather Roundup
Issued by NWS

Home | Current Version | Previous Version | Graphics & Text | Print | Product List | Glossary On
Versions: 1 2 3 4 5 6 7 8 9 10 11 12 13 14 15 16 17 18 19 20 21 22 23 24 25 26 27 28
000
ASUS45 KCYS 242110
RWRWY

WYOMING REGIONAL WEATHER ROUNDUP
NATIONAL WEATHER SERVICE CHEYENNE WY
300 PM MDT SAT SEP 24 2016

NOTE:  "FAIR" INDICATES FEW OR NO CLOUDS BELOW 12,000 FEET
WITH NO SIGNIFICANT WEATHER AND/OR OBSTRUCTIONS TO VISIBILITY.

WYZ001-242200-
YELLOWSTONE NATIONAL PARK

CITY           SKY/WX    TMP DP  RH WIND       PRES   REMARKS
LK YELLOWSTONE   N/A     43  31  62 VRB6      30.24R
W YELLOWSTONE  NOT AVBL

$$
WYZ002>013-054>058-071-098>099-242200-
NORTHERN WYOMING

CITY           SKY/WX    TMP DP  RH WIND       PRES   REMARKS
JACKSON        NOT AVBL
CODY           CLOUDY    49  42  77 CALM      30.12R
GREYBULL       CLOUDY    48  44  86 S3        30.10R
WORLAND        LGT RAIN  48  46  93 SW8       30.11R
SHERIDAN       LGT RAIN  46  42  86 W14       30.06R
BUFFALO        LGT RAIN  43  40  89 N14G25    30.07R
GILLETTE       LGT RAIN  43  42  97 W22G32    30.00R
HULETT         LGT RAIN  45  41  87 W17G28    29.95R
NEWCASTLE      RAIN      45  41  87 NW22G28   30.02R

$$
WYZ014>020-022>026-101>103-242200-
CENTRAL WYOMING

CITY           SKY/WX    TMP DP  RH WIND       PRES   REMARKS
BIG PINEY      PTSUNNY   50  32  50 NW22G36   30.22R
PINEDALE       CLOUDY    46  34  61 NW18      30.21R
DUBOIS         MOCLDY    48  34  57 NW24G35   30.16R
LANDER         CLOUDY    45  41  86 SE16      30.17R
RIVERTON       LGT RAIN  43  42  97 S8        30.18R
CASPER         LGT RAIN  46  42  86 W14       30.11R
DOUGLAS        LGT RAIN  48  41  76 W23G31    30.08R

$$
WYZ021-027>030-104>119-242200-
SOUTHERN WYOMING

CITY           SKY/WX    TMP DP  RH WIND       PRES   REMARKS
EVANSTON       CLOUDY    46  34  62 W14       30.30R
FORT BRIDGER   CLOUDY    49  37  64 NW20G28   30.30R
ROCK SPRINGS   LGT RAIN  45  41  86 W13       30.20R
DIXON          LGT RAIN  44  40  87 W13G18    30.23R
RAWLINS        PTSUNNY   45  38  76 W16       30.18R
SARATOGA       CLOUDY    46  34  61 W20G28    30.18R
LARAMIE        CLOUDY    50  30  46 W18G32    30.10R
CHEYENNE       CLOUDY    60  29  30 W14G23    30.05R
TORRINGTON     FAIR      63  38  39 NW16G23   29.97R
PINE BLUFFS    FAIR      66  30  26 W13G22    30.01S

$$




USA.gov is the U.S. government's official web portal to all federal, state and local government web resources and services.